Regional Weather Roundup
Issued by NWS

Home | Current Version | Previous Version | Graphics & Text | Print | Product List | Glossary On
Versions: 1 2 3 4 5 6 7 8 9 10 11 12 13 14 15 16 17 18 19 20 21 22 23 24 25 26 27 28 29 30 31 32 33 34 35 36 37 38 39 40 41 42 43 44 45 46 47 48 49 50
000
ASUS43 KBIS 121759
RWRND

NORTH DAKOTA REGIONAL WEATHER ROUNDUP
NATIONAL WEATHER SERVICE BISMARCK ND
100 PM CDT SAT JUL 12 2014

NOTE: "FAIR" INDICATES FEW OR NO CLOUDS BELOW 12,000 FEET WITH NO
SIGNIFICANT WEATHER AND/OR OBSTRUCTIONS TO VISIBILITY.


NDZ001>003-009>011-017-121900-
NORTHWEST NORTH DAKOTA

CITY           SKY/WX    TMP DP  RH WIND       PRES   REMARKS
WILLISTON      MOSUNNY   81  53  37 W16G23    30.11S
6HR MIN TEMP:  56; 6HR MAX TEMP:  81;

MINOT          MOSUNNY   75  54  47 W14G22    30.05F
$$

NDZ018>021-031>035-040>046-121900-
SOUTHWEST NORTH DAKOTA

CITY           SKY/WX    TMP DP  RH WIND       PRES   REMARKS
BISMARCK       MOSUNNY   78  60  53 W12       30.08F
6HR MIN TEMP:  63; 6HR MAX TEMP:  78; 6HR PCP: TRACE;

GARRISON         N/A     74  62  66 W14G20    30.08F
6HR MIN TEMP:  56; 6HR MAX TEMP:  74;

HETTINGER ARPT PTSUNNY   74  61  63 W7        30.16F
$$

NDZ004>008-012>016-024-026-027-054-121900-
NORTHEAST NORTH DAKOTA

CITY           SKY/WX    TMP DP  RH WIND       PRES   REMARKS
GRAND FORKS    CLOUDY    76  56  49 W12       29.98F
DEVILS LAKE    MOSUNNY   73  55  53 W15       30.01F
$$

NDZ022-023-025-028>030-036>039-047>053-121900-
SOUTHEAST NORTH DAKOTA

CITY           SKY/WX    TMP DP  RH WIND       PRES   REMARKS
FARGO          CLOUDY    76  58  53 W13       30.01F
6HR MIN TEMP:  62; 6HR MAX TEMP:  77;

$$



USA.gov is the U.S. government's official web portal to all federal, state and local government web resources and services.